Torna al catalogo

TITAN 3C TRANSTAGE DEB

AttivoGEO
NORAD 43513·DEBRIS·🇺🇸 United States

Lanciato Feb 9, 1969 da Cape Canaveral Space Force Station

Loading…

TLE

AggiornatoSource: Space-Track

Epoca: Sep 13, 2026, 05:46 UTC

1 43513U 69013R   26256.24081477 -.00000084  00000-0  00000+0 0  9991
2 43513   1.6259 124.0106 0046984 273.5848  86.5677  0.95267543 29228

Traccia TITAN 3C TRANSTAGE DEB in tempo reale con AllMySat

Download on the App Store